User: anonymous
Location: Unspecified
(0.0000°N, 0.0000°E)
Time: 08:11:40
(UTC+02:00)
Language:

Ariane H10 - Orbit

View from above orbital plane
View from above orbital plane
View from above satellite
View from above satellite

Ground track
Ground track

The orbit data is extracted from the following two-line orbital elements,

1 19122U 88040B   14113.10598993  .00000455  00000-0  39882-2 0  9759
2 19122 007.4289 280.3230 7149659 300.8805 352.2956 02.32146784170108
Epoch (UTC): 23 April 2014 02:32:37
Eccentricity: 0.7149659
inclination: 7.4289°
perigee height: 489 km
apogee height: 34940 km
right ascension of ascending node: 280.3230°
argument of perigee: 300.8805°
revolutions per day: 2.32146784
mean anomaly at epoch: 352.2956°
orbit number at epoch: 17010

The dashed part of the orbit path shows where the satellite is in the earth's shadow,  

DLR